Year,Month,Day,Hour,Minute,Value (Times are PST for windspeed in km/hr)
2008,12,14,00,00,22.20
2008,12,14,00,01,23.00
2008,12,14,00,02,19.50
2008,12,14,00,03,17.90
2008,12,14,00,04,18.20
2008,12,14,00,05,17.40
2008,12,14,00,06,18.20
2008,12,14,00,07,24.00
2008,12,14,00,08,15.20
2008,12,14,00,09,26.00
2008,12,14,00,10,20.80
2008,12,14,00,11,15.60
2008,12,14,00,12,13.50
2008,12,14,00,13,19.50
2008,12,14,00,14,23.00
2008,12,14,00,15,21.70
2008,12,14,00,16,28.20
2008,12,14,00,17,20.50
2008,12,14,00,18,21.50
2008,12,14,00,19,23.50
2008,12,14,00,20,17.90
2008,12,14,00,21,24.60
2008,12,14,00,22,31.90
2008,12,14,00,23,23.40
2008,12,14,00,24,22.80
2008,12,14,00,25,18.60
2008,12,14,00,26,17.50
2008,12,14,00,27,15.30
2008,12,14,00,28,15.20
2008,12,14,00,29,16.20
2008,12,14,00,30,14.50
2008,12,14,00,31,18.90
2008,12,14,00,32,17.10
2008,12,14,00,33,7.90
2008,12,14,00,34,15.80
2008,12,14,00,35,10.10
2008,12,14,00,36,11.70
2008,12,14,00,37,18.70
2008,12,14,00,38,13.90
2008,12,14,00,39,15.70
2008,12,14,00,40,17.00
2008,12,14,00,41,19.60
2008,12,14,00,42,25.00
2008,12,14,00,43,24.50
2008,12,14,00,44,20.40
2008,12,14,00,45,17.40
2008,12,14,00,46,24.60
2008,12,14,00,47,17.00
2008,12,14,00,48,20.10
2008,12,14,00,49,18.10
2008,12,14,00,50,12.80
2008,12,14,00,51,10.10
2008,12,14,00,52,11.30
2008,12,14,00,53,20.10
2008,12,14,00,54,18.50
2008,12,14,00,55,22.40
2008,12,14,00,56,14.50
2008,12,14,00,57,12.10
2008,12,14,00,58,10.80
2008,12,14,00,59,14.30
2008,12,14,01,00,17.40
2008,12,14,01,01,13.00
2008,12,14,01,02,11.50
2008,12,14,01,03,21.90
2008,12,14,01,04,22.40
2008,12,14,01,05,16.60
2008,12,14,01,06,18.20
2008,12,14,01,07,22.10
2008,12,14,01,08,23.00
2008,12,14,01,09,17.90
2008,12,14,01,10,19.60
2008,12,14,01,11,14.70
2008,12,14,01,12,26.20
2008,12,14,01,13,21.30
2008,12,14,01,14,25.10
2008,12,14,01,15,17.20
2008,12,14,01,16,13.70
2008,12,14,01,17,20.00
2008,12,14,01,18,18.60
2008,12,14,01,19,15.90
2008,12,14,01,20,18.70
2008,12,14,01,21,17.90
2008,12,14,01,22,22.50
2008,12,14,01,23,20.00
2008,12,14,01,24,17.10
2008,12,14,01,25,20.20
2008,12,14,01,26,24.10
2008,12,14,01,27,20.80
2008,12,14,01,28,18.50
2008,12,14,01,29,9.70
2008,12,14,01,30,21.00
2008,12,14,01,31,25.80
2008,12,14,01,32,17.40
2008,12,14,01,33,21.00
2008,12,14,01,34,20.10
2008,12,14,01,35,20.50
2008,12,14,01,36,14.10
2008,12,14,01,37,15.70
2008,12,14,01,38,19.60
2008,12,14,01,39,17.50
2008,12,14,01,40,19.30
2008,12,14,01,41,18.50
2008,12,14,01,42,14.90
2008,12,14,01,43,11.60
2008,12,14,01,44,13.90
2008,12,14,01,45,17.90
2008,12,14,01,46,13.70
2008,12,14,01,47,18.00
2008,12,14,01,48,12.10
2008,12,14,01,49,20.10
2008,12,14,01,50,27.10
2008,12,14,01,51,22.00
2008,12,14,01,52,29.80
2008,12,14,01,53,25.20
2008,12,14,01,54,26.90
2008,12,14,01,55,24.20
2008,12,14,01,56,23.50
2008,12,14,01,57,19.50
2008,12,14,01,58,12.20
2008,12,14,01,59,9.10
2008,12,14,02,00,13.80
2008,12,14,02,01,23.00
2008,12,14,02,02,14.90
2008,12,14,02,03,13.10
2008,12,14,02,04,19.50
2008,12,14,02,05,18.10
2008,12,14,02,06,17.10
2008,12,14,02,07,15.20
2008,12,14,02,08,17.20
2008,12,14,02,09,13.20
2008,12,14,02,10,13.90
2008,12,14,02,11,14.60
2008,12,14,02,12,22.00
2008,12,14,02,13,22.60
2008,12,14,02,14,22.60
2008,12,14,02,15,23.10
2008,12,14,02,16,23.60
2008,12,14,02,17,22.40
2008,12,14,02,18,18.90
2008,12,14,02,19,16.30
2008,12,14,02,20,24.80
2008,12,14,02,21,23.70
2008,12,14,02,22,21.30
2008,12,14,02,23,19.30
2008,12,14,02,24,23.60
2008,12,14,02,25,14.90
2008,12,14,02,26,16.70
2008,12,14,02,27,19.40
2008,12,14,02,28,13.80
2008,12,14,02,29,17.90
2008,12,14,02,30,17.00
2008,12,14,02,31,21.80
2008,12,14,02,32,11.00
2008,12,14,02,33,9.40
2008,12,14,02,34,13.90
2008,12,14,02,35,14.90
2008,12,14,02,36,19.20
2008,12,14,02,37,12.70
2008,12,14,02,38,17.50
2008,12,14,02,39,13.60
2008,12,14,02,40,12.00
2008,12,14,02,41,13.10
2008,12,14,02,42,11.10
2008,12,14,02,43,14.70
2008,12,14,02,44,13.70
2008,12,14,02,45,15.50
2008,12,14,02,46,16.90
2008,12,14,02,47,16.50
2008,12,14,02,48,18.90
2008,12,14,02,49,12.60
2008,12,14,02,50,11.30
2008,12,14,02,51,17.90
2008,12,14,02,52,18.50
2008,12,14,02,53,15.20
2008,12,14,02,54,18.20
2008,12,14,02,55,11.00
2008,12,14,02,56,19.50
2008,12,14,02,57,17.40
2008,12,14,02,58,6.20
2008,12,14,02,59,9.20
2008,12,14,03,00,9.50
2008,12,14,03,01,10.20
2008,12,14,03,02,10.40
2008,12,14,03,03,16.10
2008,12,14,03,04,15.00
2008,12,14,03,05,9.30
2008,12,14,03,06,6.10
2008,12,14,03,07,6.40
2008,12,14,03,08,9.70
2008,12,14,03,09,14.20
2008,12,14,03,10,11.30
2008,12,14,03,11,6.90
2008,12,14,03,12,10.20
2008,12,14,03,13,7.60
2008,12,14,03,14,7.50
2008,12,14,03,15,10.60
2008,12,14,03,16,8.80
2008,12,14,03,17,14.00
2008,12,14,03,18,15.60
2008,12,14,03,19,8.60
2008,12,14,03,20,8.90
2008,12,14,03,21,21.20
2008,12,14,03,22,18.30
2008,12,14,03,23,11.10
2008,12,14,03,24,13.40
2008,12,14,03,25,16.80
2008,12,14,03,26,22.80
2008,12,14,03,27,19.10
2008,12,14,03,28,22.50
2008,12,14,03,29,23.00
2008,12,14,03,30,20.80
2008,12,14,03,31,18.20
2008,12,14,03,32,15.60
2008,12,14,03,33,18.60
2008,12,14,03,34,15.80
2008,12,14,03,35,20.60
2008,12,14,03,36,17.90
2008,12,14,03,37,19.20
2008,12,14,03,38,24.90
2008,12,14,03,39,11.80
2008,12,14,03,40,17.50
2008,12,14,03,41,15.20
2008,12,14,03,42,13.30
2008,12,14,03,43,18.90
2008,12,14,03,44,17.40
2008,12,14,03,45,13.00
2008,12,14,03,46,12.20
2008,12,14,03,47,15.80
2008,12,14,03,48,14.30
2008,12,14,03,49,11.30
2008,12,14,03,50,11.40
2008,12,14,03,51,15.90
2008,12,14,03,52,13.50
2008,12,14,03,53,21.00
2008,12,14,03,54,19.30
2008,12,14,03,55,13.00
2008,12,14,03,56,13.40
2008,12,14,03,57,13.30
2008,12,14,03,58,19.60
2008,12,14,03,59,13.00
2008,12,14,04,00,17.90
2008,12,14,04,01,14.40
2008,12,14,04,02,16.70
2008,12,14,04,03,13.20
2008,12,14,04,04,10.40
2008,12,14,04,05,16.30
2008,12,14,04,06,14.10
2008,12,14,04,07,12.90
2008,12,14,04,08,22.00
2008,12,14,04,09,21.30
2008,12,14,04,10,17.40
2008,12,14,04,11,16.50
2008,12,14,04,12,17.40
2008,12,14,04,13,12.80
2008,12,14,04,14,14.00
2008,12,14,04,15,15.30
2008,12,14,04,16,9.40
2008,12,14,04,17,9.90
2008,12,14,04,18,10.30
2008,12,14,04,19,10.90
2008,12,14,04,20,14.40
2008,12,14,04,21,15.00
2008,12,14,04,22,9.10
2008,12,14,04,23,15.20
2008,12,14,04,24,14.70
2008,12,14,04,25,16.70
2008,12,14,04,26,14.10
2008,12,14,04,27,18.10
2008,12,14,04,28,21.40
2008,12,14,04,29,13.30
2008,12,14,04,30,15.50
2008,12,14,04,31,18.40
2008,12,14,04,32,18.50
2008,12,14,04,33,15.10
2008,12,14,04,34,18.90
2008,12,14,04,35,18.90
2008,12,14,04,36,19.80
2008,12,14,04,37,26.40
2008,12,14,04,38,18.50
2008,12,14,04,39,16.80
2008,12,14,04,40,22.50
2008,12,14,04,41,20.40
2008,12,14,04,42,17.10
2008,12,14,04,43,10.50
2008,12,14,04,44,13.60
2008,12,14,04,45,16.60
2008,12,14,04,46,13.10
2008,12,14,04,47,19.20
2008,12,14,04,48,27.20
2008,12,14,04,49,20.40
2008,12,14,04,50,19.40
2008,12,14,04,51,16.00
2008,12,14,04,52,14.60
2008,12,14,04,53,22.00
2008,12,14,04,54,22.80
2008,12,14,04,55,15.60
2008,12,14,04,56,18.30
2008,12,14,04,57,18.30
2008,12,14,04,58,28.90
2008,12,14,04,59,22.20
2008,12,14,05,00,24.40
2008,12,14,05,01,17.80
2008,12,14,05,02,22.70
2008,12,14,05,03,17.20
2008,12,14,05,04,22.20
2008,12,14,05,05,18.30
2008,12,14,05,06,22.50
2008,12,14,05,07,26.60
2008,12,14,05,08,26.40
2008,12,14,05,09,29.40
2008,12,14,05,10,15.10
2008,12,14,05,11,20.50
2008,12,14,05,12,18.30
2008,12,14,05,13,21.30
2008,12,14,05,14,12.60
2008,12,14,05,15,17.30
2008,12,14,05,16,28.30
2008,12,14,05,17,28.50
2008,12,14,05,18,22.30
2008,12,14,05,19,25.30
2008,12,14,05,20,18.40
2008,12,14,05,21,18.50
2008,12,14,05,22,16.30
2008,12,14,05,23,16.90
2008,12,14,05,24,20.20
2008,12,14,05,25,20.10
2008,12,14,05,26,27.80
2008,12,14,05,27,13.00
2008,12,14,05,28,13.80
2008,12,14,05,29,16.40
2008,12,14,05,30,15.70
2008,12,14,05,31,9.70
2008,12,14,05,32,17.20
2008,12,14,05,33,28.70
2008,12,14,05,34,21.10
2008,12,14,05,35,27.90
2008,12,14,05,36,12.80
2008,12,14,05,37,16.70
2008,12,14,05,38,16.80
2008,12,14,05,39,17.10
2008,12,14,05,40,15.20
2008,12,14,05,41,14.40
2008,12,14,05,42,14.70
2008,12,14,05,43,28.50
2008,12,14,05,44,20.60
2008,12,14,05,45,21.10
2008,12,14,05,46,23.80
2008,12,14,05,47,25.70
2008,12,14,05,48,24.10
2008,12,14,05,49,16.10
2008,12,14,05,50,14.10
2008,12,14,05,51,15.40
2008,12,14,05,52,13.10
2008,12,14,05,53,10.20
2008,12,14,05,54,24.00
2008,12,14,05,55,16.10
2008,12,14,05,56,19.90
2008,12,14,05,57,14.50
2008,12,14,05,58,21.20
2008,12,14,05,59,16.60
2008,12,14,06,00,13.10
2008,12,14,06,01,9.40
2008,12,14,06,02,10.90
2008,12,14,06,03,19.00
2008,12,14,06,04,17.10
2008,12,14,06,05,25.70
2008,12,14,06,06,25.30
2008,12,14,06,07,17.90
2008,12,14,06,08,23.50
2008,12,14,06,09,26.50
2008,12,14,06,10,28.30
2008,12,14,06,11,16.60
2008,12,14,06,12,16.90
2008,12,14,06,13,15.20
2008,12,14,06,14,19.20
2008,12,14,06,15,17.90
2008,12,14,06,16,13.00
2008,12,14,06,17,18.40
2008,12,14,06,18,13.50
2008,12,14,06,19,26.20
2008,12,14,06,20,22.90
2008,12,14,06,21,21.80
2008,12,14,06,22,15.80
2008,12,14,06,23,23.70
2008,12,14,06,24,19.60
2008,12,14,06,25,20.80
2008,12,14,06,26,20.80
2008,12,14,06,27,16.70
2008,12,14,06,28,20.40
2008,12,14,06,29,18.10
2008,12,14,06,30,20.00
2008,12,14,06,31,15.50
2008,12,14,06,32,17.40
2008,12,14,06,33,19.50
2008,12,14,06,34,18.00
2008,12,14,06,35,17.60
2008,12,14,06,36,19.40
2008,12,14,06,37,12.30
2008,12,14,06,38,15.80
2008,12,14,06,39,13.70
2008,12,14,06,40,18.00
2008,12,14,06,41,25.60
2008,12,14,06,42,24.10
2008,12,14,06,43,21.20
2008,12,14,06,44,18.30
2008,12,14,06,45,20.90
2008,12,14,06,46,17.70
2008,12,14,06,47,17.60
2008,12,14,06,48,14.50
2008,12,14,06,49,17.30
2008,12,14,06,50,21.90
2008,12,14,06,51,17.40
2008,12,14,06,52,15.10
2008,12,14,06,53,15.70
2008,12,14,06,54,12.00
2008,12,14,06,55,17.40
2008,12,14,06,56,19.10
2008,12,14,06,57,17.50
2008,12,14,06,58,12.30
2008,12,14,06,59,16.60
2008,12,14,07,00,18.00
2008,12,14,07,01,15.80
2008,12,14,07,02,12.10
2008,12,14,07,03,11.00
2008,12,14,07,04,12.80
2008,12,14,07,05,12.80
2008,12,14,07,06,16.80
2008,12,14,07,07,23.30
2008,12,14,07,08,17.40
2008,12,14,07,09,9.60
2008,12,14,07,10,16.60
2008,12,14,07,11,19.90
2008,12,14,07,12,18.40
2008,12,14,07,13,22.90
2008,12,14,07,14,18.60
2008,12,14,07,15,16.40
2008,12,14,07,16,17.30
2008,12,14,07,17,16.90
2008,12,14,07,18,14.80
2008,12,14,07,19,22.30
2008,12,14,07,20,21.00
2008,12,14,07,21,20.60
2008,12,14,07,22,18.30
2008,12,14,07,23,19.70
2008,12,14,07,24,18.90
2008,12,14,07,25,19.50
2008,12,14,07,26,19.60
2008,12,14,07,27,14.70
2008,12,14,07,28,18.20
2008,12,14,07,29,15.40
2008,12,14,07,30,11.30
2008,12,14,07,31,10.00
2008,12,14,07,32,14.20
2008,12,14,07,33,15.30
2008,12,14,07,34,11.60
2008,12,14,07,35,17.30
2008,12,14,07,36,17.80
2008,12,14,07,37,20.50
2008,12,14,07,38,14.30
2008,12,14,07,39,16.20
2008,12,14,07,40,16.20
2008,12,14,07,41,11.20
2008,12,14,07,42,9.70
2008,12,14,07,43,16.50
2008,12,14,07,44,12.40
2008,12,14,07,45,18.20
2008,12,14,07,46,19.00
2008,12,14,07,47,18.10
2008,12,14,07,48,17.20
2008,12,14,07,49,10.00
2008,12,14,07,50,19.50
2008,12,14,07,51,15.00
2008,12,14,07,52,16.50
2008,12,14,07,53,12.60
2008,12,14,07,54,16.80
2008,12,14,07,55,22.10
2008,12,14,07,56,18.70
2008,12,14,07,57,17.70
2008,12,14,07,58,15.60
2008,12,14,07,59,20.80
2008,12,14,08,00,13.90
2008,12,14,08,01,16.40
2008,12,14,08,02,23.00
2008,12,14,08,03,18.30
2008,12,14,08,04,17.00
2008,12,14,08,05,14.60
2008,12,14,08,06,13.90
2008,12,14,08,07,17.80
2008,12,14,08,08,16.90
2008,12,14,08,09,19.20
2008,12,14,08,10,18.30
2008,12,14,08,11,20.60
2008,12,14,08,12,15.30
2008,12,14,08,13,17.00
2008,12,14,08,14,11.90
2008,12,14,08,15,18.50
2008,12,14,08,16,18.40
2008,12,14,08,17,16.40
2008,12,14,08,18,18.00
2008,12,14,08,19,20.90
2008,12,14,08,20,24.10
2008,12,14,08,21,22.90
2008,12,14,08,22,20.50
2008,12,14,08,23,16.90
2008,12,14,08,24,23.00
2008,12,14,08,25,22.40
2008,12,14,08,26,22.10
2008,12,14,08,27,23.20
2008,12,14,08,28,21.60
2008,12,14,08,29,19.60
2008,12,14,08,30,21.50
2008,12,14,08,31,14.30
2008,12,14,08,32,17.40
2008,12,14,08,33,14.30
2008,12,14,08,34,12.80
2008,12,14,08,35,16.40
2008,12,14,08,36,17.10
2008,12,14,08,37,11.90
2008,12,14,08,38,14.10
2008,12,14,08,39,9.90
2008,12,14,08,40,13.60
2008,12,14,08,41,17.10
2008,12,14,08,42,19.70
2008,12,14,08,43,12.80
2008,12,14,08,44,12.90
2008,12,14,08,45,17.60
2008,12,14,08,46,24.10
2008,12,14,08,47,21.20
2008,12,14,08,48,19.00
2008,12,14,08,49,19.50
2008,12,14,08,50,18.40
2008,12,14,08,51,22.20
2008,12,14,08,52,17.70
2008,12,14,08,53,26.20
2008,12,14,08,54,21.30
2008,12,14,08,55,21.00
2008,12,14,08,56,15.90
2008,12,14,08,57,20.00
2008,12,14,08,58,15.80
2008,12,14,08,59,12.80
2008,12,14,09,00,10.30
2008,12,14,09,01,18.20
2008,12,14,09,02,21.30
2008,12,14,09,03,22.80
2008,12,14,09,04,20.00
2008,12,14,09,05,14.10
2008,12,14,09,06,22.30
2008,12,14,09,07,20.80
2008,12,14,09,08,22.70
2008,12,14,09,09,24.70
2008,12,14,09,10,24.20
2008,12,14,09,11,22.50
2008,12,14,09,12,17.10
2008,12,14,09,13,18.00
2008,12,14,09,14,24.20
2008,12,14,09,15,25.70
2008,12,14,09,16,19.40
2008,12,14,09,17,20.80
2008,12,14,09,18,22.50
2008,12,14,09,19,21.60
2008,12,14,09,20,24.10
2008,12,14,09,21,18.70
2008,12,14,09,22,22.60
2008,12,14,09,23,20.20
2008,12,14,09,24,23.30
2008,12,14,09,25,24.50
2008,12,14,09,26,27.30
2008,12,14,09,27,26.70
2008,12,14,09,28,21.70
2008,12,14,09,29,18.50
2008,12,14,09,30,21.90
2008,12,14,09,31,24.10
2008,12,14,09,32,28.10
2008,12,14,09,33,27.20
2008,12,14,09,34,25.70
2008,12,14,09,35,25.20
2008,12,14,09,36,28.60
2008,12,14,09,37,13.70
2008,12,14,09,38,13.00
2008,12,14,09,39,16.60
2008,12,14,09,40,26.90
2008,12,14,09,41,21.00
2008,12,14,09,42,24.10
2008,12,14,09,43,25.60
2008,12,14,09,44,15.20
2008,12,14,09,45,19.80
2008,12,14,09,46,22.90
2008,12,14,09,47,21.90
2008,12,14,09,48,23.80
2008,12,14,09,49,23.40
2008,12,14,09,50,20.70
2008,12,14,09,51,24.90
2008,12,14,09,52,23.70
2008,12,14,09,53,20.30
2008,12,14,09,54,14.70
2008,12,14,09,55,18.40
2008,12,14,09,56,20.40
2008,12,14,09,57,20.40
2008,12,14,09,58,28.10
2008,12,14,09,59,22.30
2008,12,14,10,00,22.70
2008,12,14,10,01,22.60
2008,12,14,10,02,20.20
2008,12,14,10,03,16.50
2008,12,14,10,04,24.60
2008,12,14,10,05,19.50
2008,12,14,10,06,19.00
2008,12,14,10,07,25.10
2008,12,14,10,08,25.80
2008,12,14,10,09,26.40
2008,12,14,10,10,23.10
2008,12,14,10,11,22.10
2008,12,14,10,12,22.80
2008,12,14,10,13,19.70
2008,12,14,10,14,17.50
2008,12,14,10,15,22.50
2008,12,14,10,16,23.60
2008,12,14,10,17,22.20
2008,12,14,10,18,26.60
2008,12,14,10,19,26.00
2008,12,14,10,20,25.30
2008,12,14,10,21,27.40
2008,12,14,10,22,22.50
2008,12,14,10,23,23.60
2008,12,14,10,24,26.70
2008,12,14,10,25,25.20
2008,12,14,10,26,20.20
2008,12,14,10,27,22.50
2008,12,14,10,28,18.00
2008,12,14,10,29,15.20
2008,12,14,10,30,26.80
2008,12,14,10,31,28.00
2008,12,14,10,32,23.00
2008,12,14,10,33,23.60
2008,12,14,10,34,19.00
2008,12,14,10,35,22.70
2008,12,14,10,36,30.80
2008,12,14,10,37,25.60
2008,12,14,10,38,22.40
2008,12,14,10,39,16.10
2008,12,14,10,40,24.60
2008,12,14,10,41,26.30
2008,12,14,10,42,20.30
2008,12,14,10,43,17.20
2008,12,14,10,44,12.20
2008,12,14,10,45,20.50
2008,12,14,10,46,25.40
2008,12,14,10,47,23.70
2008,12,14,10,48,25.00
2008,12,14,10,49,25.20
2008,12,14,10,50,15.30
2008,12,14,10,51,14.70
2008,12,14,10,52,18.10
2008,12,14,10,53,14.30
2008,12,14,10,54,13.30
2008,12,14,10,55,19.10
2008,12,14,10,56,21.50
2008,12,14,10,57,22.20
2008,12,14,10,58,16.40
2008,12,14,10,59,18.60
2008,12,14,11,00,24.10
2008,12,14,11,01,23.50
2008,12,14,11,02,26.80
2008,12,14,11,03,24.10
2008,12,14,11,04,23.80
2008,12,14,11,05,21.80
2008,12,14,11,06,28.10
2008,12,14,11,07,22.10
2008,12,14,11,08,22.20
2008,12,14,11,09,27.90
2008,12,14,11,10,20.30
2008,12,14,11,11,25.30
2008,12,14,11,12,20.30
2008,12,14,11,13,29.30
2008,12,14,11,14,25.90
2008,12,14,11,15,24.50
2008,12,14,11,16,18.80
2008,12,14,11,17,22.90
2008,12,14,11,18,17.10
2008,12,14,11,19,22.20
2008,12,14,11,20,23.00
2008,12,14,11,21,21.50
2008,12,14,11,22,19.80
2008,12,14,11,23,17.40
2008,12,14,11,24,27.10
2008,12,14,11,25,24.40
2008,12,14,11,26,28.40
2008,12,14,11,27,25.20
2008,12,14,11,28,18.90
2008,12,14,11,29,18.70
2008,12,14,11,30,23.40
2008,12,14,11,31,19.30
2008,12,14,11,32,22.00
2008,12,14,11,33,19.60
2008,12,14,11,34,21.90
2008,12,14,11,35,24.00
2008,12,14,11,36,27.70
2008,12,14,11,37,22.40
2008,12,14,11,38,20.70
2008,12,14,11,39,22.90
2008,12,14,11,40,23.40
2008,12,14,11,41,21.50
2008,12,14,11,42,20.80
2008,12,14,11,43,22.00
2008,12,14,11,44,18.90
2008,12,14,11,45,21.50
2008,12,14,11,46,19.80
2008,12,14,11,47,16.30
2008,12,14,11,48,21.40
2008,12,14,11,49,23.90
2008,12,14,11,50,16.90
2008,12,14,11,51,23.30
2008,12,14,11,52,22.40
2008,12,14,11,53,24.00
2008,12,14,11,54,25.60
2008,12,14,11,55,21.20
2008,12,14,11,56,21.50
2008,12,14,11,57,23.00
2008,12,14,11,58,24.40
2008,12,14,11,59,25.70
2008,12,14,12,00,24.90
2008,12,14,12,01,21.40
2008,12,14,12,02,13.30
2008,12,14,12,03,17.10
2008,12,14,12,04,16.80
2008,12,14,12,05,21.20
2008,12,14,12,06,18.50
2008,12,14,12,07,16.30
2008,12,14,12,08,17.70
2008,12,14,12,09,22.70
2008,12,14,12,10,23.00
2008,12,14,12,11,22.30
2008,12,14,12,12,20.70
2008,12,14,12,13,21.90
2008,12,14,12,14,21.50
2008,12,14,12,15,18.50
2008,12,14,12,16,19.80
2008,12,14,12,17,22.30
2008,12,14,12,18,28.10
2008,12,14,12,19,33.10
2008,12,14,12,20,24.30
2008,12,14,12,21,25.90
2008,12,14,12,22,21.10
2008,12,14,12,23,23.00
2008,12,14,12,24,25.90
2008,12,14,12,25,26.10
2008,12,14,12,26,17.00
2008,12,14,12,27,11.50
2008,12,14,12,28,23.00
2008,12,14,12,29,20.60
2008,12,14,12,30,22.90
2008,12,14,12,31,13.00
2008,12,14,12,32,19.20
2008,12,14,12,33,17.70
2008,12,14,12,34,30.50
2008,12,14,12,35,26.30
2008,12,14,12,36,28.70
2008,12,14,12,37,26.90
2008,12,14,12,38,29.90
2008,12,14,12,39,25.10
2008,12,14,12,40,25.50
2008,12,14,12,41,24.40
2008,12,14,12,42,22.70
2008,12,14,12,43,22.20
2008,12,14,12,44,17.90
2008,12,14,12,45,22.80
2008,12,14,12,46,31.10
2008,12,14,12,47,31.30
2008,12,14,12,48,19.50
2008,12,14,12,49,22.90
2008,12,14,12,50,26.50
2008,12,14,12,51,28.20
2008,12,14,12,52,24.10
2008,12,14,12,53,25.30
2008,12,14,12,54,29.10
2008,12,14,12,55,23.70
2008,12,14,12,56,31.90
2008,12,14,12,57,28.20
2008,12,14,12,58,22.10
2008,12,14,12,59,26.50
2008,12,14,13,00,19.60
2008,12,14,13,01,25.20
2008,12,14,13,02,28.20
2008,12,14,13,03,17.80
2008,12,14,13,04,26.60
2008,12,14,13,05,29.70
2008,12,14,13,06,28.90
2008,12,14,13,07,25.60
2008,12,14,13,08,25.00
2008,12,14,13,09,24.50
2008,12,14,13,10,24.50
2008,12,14,13,11,24.10
2008,12,14,13,12,24.40
2008,12,14,13,13,18.20
2008,12,14,13,14,24.50
2008,12,14,13,15,23.70
2008,12,14,13,16,18.90
2008,12,14,13,17,21.60
2008,12,14,13,18,29.20
2008,12,14,13,19,26.00
2008,12,14,13,20,23.30
2008,12,14,13,21,15.80
2008,12,14,13,22,18.30
2008,12,14,13,23,23.80
2008,12,14,13,24,23.70
2008,12,14,13,25,24.50
2008,12,14,13,26,22.50
2008,12,14,13,27,16.40
2008,12,14,13,28,18.90
2008,12,14,13,29,21.90
2008,12,14,13,30,16.90
2008,12,14,13,31,16.60
2008,12,14,13,32,28.20
2008,12,14,13,33,32.40
2008,12,14,13,34,26.60
2008,12,14,13,35,22.50
2008,12,14,13,36,27.70
2008,12,14,13,37,21.30
2008,12,14,13,38,20.50
2008,12,14,13,39,21.50
2008,12,14,13,40,16.30
2008,12,14,13,41,14.20
2008,12,14,13,42,15.10
2008,12,14,13,43,29.60
2008,12,14,13,44,21.60
2008,12,14,13,45,20.10
2008,12,14,13,46,18.20
2008,12,14,13,47,22.40
2008,12,14,13,48,25.20
2008,12,14,13,49,22.00
2008,12,14,13,50,31.50
2008,12,14,13,51,24.00
2008,12,14,13,52,23.30
2008,12,14,13,53,27.00
2008,12,14,13,54,25.00
2008,12,14,13,55,27.40
2008,12,14,13,56,20.80
2008,12,14,13,57,23.50
2008,12,14,13,58,20.10
2008,12,14,13,59,16.20
2008,12,14,14,00,20.50
2008,12,14,14,01,25.50
2008,12,14,14,02,27.80
2008,12,14,14,03,25.30
2008,12,14,14,04,23.70
2008,12,14,14,05,25.40
2008,12,14,14,06,32.90
2008,12,14,14,07,28.80
2008,12,14,14,08,27.70
2008,12,14,14,09,31.00
2008,12,14,14,10,29.50
2008,12,14,14,11,22.00
2008,12,14,14,12,15.40
2008,12,14,14,13,30.70
2008,12,14,14,14,27.70
2008,12,14,14,15,21.40
2008,12,14,14,16,22.40
2008,12,14,14,17,29.80
2008,12,14,14,18,27.10
2008,12,14,14,19,23.70
2008,12,14,14,20,27.10
2008,12,14,14,21,29.70
2008,12,14,14,22,20.90
2008,12,14,14,23,27.00
2008,12,14,14,24,20.20
2008,12,14,14,25,20.20
2008,12,14,14,26,16.30
2008,12,14,14,27,14.20
2008,12,14,14,28,23.50
2008,12,14,14,29,30.90
2008,12,14,14,30,28.30
2008,12,14,14,31,32.30
2008,12,14,14,32,18.50
2008,12,14,14,33,16.80
2008,12,14,14,34,26.30
2008,12,14,14,35,26.10
2008,12,14,14,36,25.40
2008,12,14,14,37,20.30
2008,12,14,14,38,25.00
2008,12,14,14,39,20.50
2008,12,14,14,40,16.40
2008,12,14,14,41,15.90
2008,12,14,14,42,28.00
2008,12,14,14,43,23.90
2008,12,14,14,44,33.80
2008,12,14,14,45,22.20
2008,12,14,14,46,20.00
2008,12,14,14,47,22.80
2008,12,14,14,48,27.90
2008,12,14,14,49,25.80
2008,12,14,14,50,34.10
2008,12,14,14,51,27.70
2008,12,14,14,52,25.80
2008,12,14,14,53,29.90
2008,12,14,14,54,28.60
2008,12,14,14,55,23.80
2008,12,14,14,56,32.40
2008,12,14,14,57,28.10
2008,12,14,14,58,29.60
2008,12,14,14,59,24.10
2008,12,14,15,00,27.20
2008,12,14,15,01,28.80
2008,12,14,15,02,30.40
2008,12,14,15,03,21.60
2008,12,14,15,04,21.80
2008,12,14,15,05,25.70
2008,12,14,15,06,25.10
2008,12,14,15,07,25.80
2008,12,14,15,08,26.90
2008,12,14,15,09,25.00
2008,12,14,15,10,23.80
2008,12,14,15,11,27.70
2008,12,14,15,12,19.70
2008,12,14,15,13,26.20
2008,12,14,15,14,28.20
2008,12,14,15,15,28.40
2008,12,14,15,16,22.10
2008,12,14,15,17,21.50
2008,12,14,15,18,22.30
2008,12,14,15,19,20.90
2008,12,14,15,20,22.00
2008,12,14,15,21,27.00
2008,12,14,15,22,28.50
2008,12,14,15,23,25.30
2008,12,14,15,24,26.40
2008,12,14,15,25,17.90
2008,12,14,15,26,24.30
2008,12,14,15,27,18.70
2008,12,14,15,28,25.70
2008,12,14,15,29,25.20
2008,12,14,15,30,31.30
2008,12,14,15,31,28.30
2008,12,14,15,32,26.10
2008,12,14,15,33,18.70
2008,12,14,15,34,33.30
2008,12,14,15,35,23.70
2008,12,14,15,36,25.90
2008,12,14,15,37,27.50
2008,12,14,15,38,28.50
2008,12,14,15,39,21.50
2008,12,14,15,40,25.70
2008,12,14,15,41,25.50
2008,12,14,15,42,22.20
2008,12,14,15,43,19.90
2008,12,14,15,44,23.40
2008,12,14,15,45,29.00
2008,12,14,15,46,27.80
2008,12,14,15,47,21.60
2008,12,14,15,48,29.10
2008,12,14,15,49,23.10
2008,12,14,15,50,26.70
2008,12,14,15,51,30.80
2008,12,14,15,52,25.80
2008,12,14,15,53,26.00
2008,12,14,15,54,25.10
2008,12,14,15,55,25.30
2008,12,14,15,56,27.10
2008,12,14,15,57,24.60
2008,12,14,15,58,20.40
2008,12,14,15,59,18.50
2008,12,14,16,00,21.50
2008,12,14,16,01,20.20
2008,12,14,16,02,30.20
2008,12,14,16,03,34.10
2008,12,14,16,04,33.40
2008,12,14,16,05,29.50
2008,12,14,16,06,29.70
2008,12,14,16,07,27.70
2008,12,14,16,08,26.60
2008,12,14,16,09,31.40
2008,12,14,16,10,28.70
2008,12,14,16,11,26.30
2008,12,14,16,12,23.00
2008,12,14,16,13,25.70
2008,12,14,16,14,34.50
2008,12,14,16,15,20.00
2008,12,14,16,16,23.60
2008,12,14,16,17,19.60
2008,12,14,16,18,27.10
2008,12,14,16,19,32.80
2008,12,14,16,20,28.30
2008,12,14,16,21,26.30
2008,12,14,16,22,15.60
2008,12,14,16,23,21.00
2008,12,14,16,24,27.10
2008,12,14,16,25,26.30
2008,12,14,16,26,33.30
2008,12,14,16,27,32.00
2008,12,14,16,28,22.40
2008,12,14,16,29,37.40
2008,12,14,16,30,33.70
2008,12,14,16,31,24.00
2008,12,14,16,32,27.10
2008,12,14,16,33,31.00
2008,12,14,16,34,26.40
2008,12,14,16,35,30.10
2008,12,14,16,36,33.10
2008,12,14,16,37,26.80
2008,12,14,16,38,22.60
2008,12,14,16,39,23.90
2008,12,14,16,40,20.00
2008,12,14,16,41,22.50
2008,12,14,16,42,29.50
2008,12,14,16,43,41.10
2008,12,14,16,44,37.80
2008,12,14,16,45,34.30
2008,12,14,16,46,35.80
2008,12,14,16,47,30.50
2008,12,14,16,48,25.70
2008,12,14,16,49,26.10
2008,12,14,16,50,33.50
2008,12,14,16,51,28.00
2008,12,14,16,52,31.30
2008,12,14,16,53,33.10
2008,12,14,16,54,24.70
2008,12,14,16,55,33.30
2008,12,14,16,56,39.30
2008,12,14,16,57,22.10
2008,12,14,16,58,21.90
2008,12,14,16,59,30.00
2008,12,14,17,00,27.00
2008,12,14,17,01,27.00
2008,12,14,17,02,28.50
2008,12,14,17,03,32.60
2008,12,14,17,04,28.10
2008,12,14,17,05,34.10
2008,12,14,17,06,32.40
2008,12,14,17,07,30.70
2008,12,14,17,08,32.00
2008,12,14,17,09,33.70
2008,12,14,17,10,32.10
2008,12,14,17,11,27.20
2008,12,14,17,12,27.10
2008,12,14,17,13,30.10
2008,12,14,17,14,18.10
2008,12,14,17,15,31.00
2008,12,14,17,16,30.10
2008,12,14,17,17,29.00
2008,12,14,17,18,35.40
2008,12,14,17,19,33.60
2008,12,14,17,20,31.20